Location: Home
(42.5358°N, 72.7383°W)
Time: 20:00:26
(UTC-05:00)

A-11 Canister half - Pass Details

Date: 07 December 2021
Orbit: 1524 x 1684 km, 47.3° (Epoch: 23 January)

Event Time Altitude Azimuth Distance (km) Brightness Sun altitude
Rises 03:00:39 0° 271° (W) 4,937 - -44.5°
Reaches altitude 10° 03:03:53 10° 274° (W) 3,948 - -44.0°
Maximum altitude 03:14:02 68° 357° (N) 1,779 - -42.1°
Exits shadow 03:15:25 62° 37° (NE) 1,840 9.3 -41.9°
Drops below altitude 10° 03:23:58 10° 80° (E) 3,872 11.8 -40.3°
Sets 03:27:06 0° 84° (E) 4,838 12.5 -39.7°
